Regional Weather Roundup
Issued by NWS

Home | Current Version | Previous Version | Graphics & Text | Print | Product List | Glossary On
Versions: 1 2 3 4 5 6 7 8 9 10 11 12 13 14 15 16 17 18 19 20 21 22 23 24 25 26 27 28 29 30 31 32 33 34 35 36 37 38 39 40 41 42 43 44 45 46 47 48 49 50
000
ASUS43 KIND 290309
RWRIN

WEATHER ROUNDUP FOR INDIANA
NATIONAL WEATHER SERVICE INDIANAPOLIS IN
1100 PM EDT SUN AUG 28 2016

NOTE: "FAIR" INDICATES FEW OR NO CLOUDS BELOW 12,000 FEET WITH NO
SIGNIFICANT WEATHER AND/OR OBSTRUCTIONS TO VISIBILITY.

* - STATION DOES NOT REPORT WEATHER SUCH AS PRECIPITATION OR FOG.

+ - STATION NOT QUALITY CONTROLLED BY THE NATIONAL WEATHER SERVICE.
    USE DATA WITH CAUTION...ESPECIALLY DEWPOINT AND RELATIVE
    HUMIDITY OBSERVATIONS.

INZ001>003-010>013-019-020-290400-
NORTHWEST INDIANA

CITY           SKY/WX    TMP DP  RH WIND       PRES   REMARKS
GARY /AIRPORT/ MOCLDY    73  72  94 NE7       30.21R
KNOX *+        PTCLDY    70  61  73 CALM      30.21R
LA PORTE +     CLOUDY   N/A N/A N/A CALM      30.23R FOG
MICHIGAN CITY+ CLEAR     68  68 100 MISG      30.22R
MONTICELLO +   PTCLDY    71  66  83 CALM      30.20R
RENSSELAER +   PTCLDY    72  70  94 E5        30.21S
VALPARAISO     CLOUDY    71  69  93 CALM      30.22R

$$

LMZ046-743>745-290400-
SOUTHERN LAKE MICHIGAN

STATION/POSITION TIME  TEMP    WIND        PRES    WAVE
                       AIR SEA DIR/SP/G            HT
                 (UTC) (F)     (DEG/KT/KT) (MB)    (FT)
BURNS HARBOR     0202   74      80/  5/ 12 1023.0R
MICHIGAN CITY    0200   74      30/ 13/ 14   N/A
5NW MICH CITY    0300   75 76   60/ 10/ 12   N/A     2

$$

INZ004-005-014>016-021>024-290400-
NORTH CENTRAL INDIANA

CITY           SKY/WX    TMP DP  RH WIND       PRES   REMARKS
GOSHEN         CLEAR     69  66  90 NE3       30.22S FOG
LOGANSPORT +   CLEAR     68  68 100 CALM      30.22R
PERU/GRISSOM   CLEAR     70  69  99 SE3       30.21R
ROCHESTER +    CLOUDY    72  70  94 CALM      30.23R
SOUTH BEND     CLEAR     72  70  93 CALM      30.23R
WARSAW +       FOG       68  68 100 CALM      30.23R VSB 1

$$

INZ006>009-017-018-025>027-290400-
NORTHEAST INDIANA

CITY           SKY/WX    TMP DP  RH WIND       PRES   REMARKS
ANGOLA *+      MOCLDY    70  66  88 CALM      30.24R VSB 1/2
AUBURN +       CLEAR     68  64  88 CALM      30.24R
FORT WAYNE     PTCLDY    69  66  90 S3        30.23R
HUNTINGTON +   CLEAR     67  66  96 CALM      30.23R

$$

INZ028-029-035-036-043>045-051>053-290400-
WEST CENTRAL INDIANA

CITY           SKY/WX    TMP DP  RH WIND       PRES   REMARKS
CRAWFORDSVL +  CLEAR     71  69  95 E3        30.19S
GREENCASTLE +  CLEAR     73  72  94 E3        30.20R
LAFAYETTE      CLEAR     71  68  90 NE7       30.20R
TERRE HAUTE    CLEAR     77  72  84 NE5       30.17R

$$

INZ030>032-037>040-046>048-054>057-064-065-290400-
CENTRAL INDIANA

CITY           SKY/WX    TMP DP  RH WIND       PRES   REMARKS
INDIANAPOLIS   PTCLDY    76  69  79 SE15      30.20R
-EAGLE CREEK   CLEAR     74  69  85 MISG      30.21R
KOKOMO *+      CLEAR     70  66  88 CALM      30.22R
MARION +       PTCLDY    70  68  95 SE3       30.24R
MT COMFORT *+  PTCLDY    73  68  83 SE9       30.22R
SHELBYVILLE    PTCLDY    76  67  73 SE8       30.21R
ZIONSVILLE +   CLEAR     70  68  94 CALM      30.22R

$$

INZ033-034-041-042-049-050-058-059-290400-
EAST CENTRAL INDIANA

CITY           SKY/WX    TMP DP  RH WIND       PRES   REMARKS
MUNCIE         PTCLDY    73  70  90 SE6       30.24R

$$

INZ060-061-067>069-081>083-085>088-290400-
SOUTHWEST INDIANA

CITY           SKY/WX    TMP DP  RH WIND       PRES   REMARKS
EVANSVILLE     PTCLDY    80  76  87 E7        30.15R
HUNTINGBURG *+ CLOUDY    77  68  73 E3        30.17R
WASHINGTON +   CLOUDY    75  74  97 MISG      30.18R

$$

INZ062-063-066-070>080-084-089>092-290400-
SOUTH CENTRAL AND SOUTHEAST INDIANA

CITY           SKY/WX    TMP DP  RH WIND       PRES   REMARKS
BLOOMINGTON    MOCLDY    78  69  73 E10       30.20R
MADISON *+     PTCLDY    72  68  88 E5        30.22F

$$





USA.gov is the U.S. government's official web portal to all federal, state and local government web resources and services.